Findlay, OH

4:15 PM EDT on April 23, 2017 (GMT -0400)
Findlay

Weather History for KFDY - November, 2011

Change the Weather History Date:

Wednesday, November 9, 2011

  Actual Average Record
Temperature  
Mean Temperature 52 °F -  
Max Temperature 64 °F 52 °F 73 °F (1975)
Min Temperature 39 °F 37 °F 11 °F (1991)
Degree Days  
Heating Degree Days 14    
Growing Degree Days 2 (Base 50)    
Moisture  
Dew Point 44 °F    
Average Humidity 75    
Maximum Humidity 93    
Minimum Humidity 66    
Precipitation  
Precipitation 0.04 in - - ()
Sea Level Pressure  
Sea Level Pressure 29.84 in    
Wind  
Wind Speed 16 mph (SSW)    
Max Wind Speed 30 mph    
Max Gust Speed 41 mph    
Visibility 10 miles    
Events Rain    
Averages and records for this station are not official NWS values.
T = Trace of Precipitation, MM = Missing Value Source: NWS Daily Summary

Daily Weather History Graph

Daily Weather History Graph

Search for Another Location

Airport or City:

Trip Planner

Search our weather history database for the weather conditions in past years. The results will help you decide how hot, cold, wet, or windy it might be!

Date:

Astronomy

Nov. 09, 2011 Rise Set
Actual Time 7:14 AM EST 5:21 PM EST
Civil Twilight 6:45 AM EST 5:50 PM EST
Nautical Twilight 6:12 AM EST 6:23 PM EST
Astronomical Twilight 5:40 AM EST 6:55 PM EST
Moon 4:32 PM EST (11/9) 6:09 AM EST (11/9)
Length of Visible Light 11h 05m
Length of Day
10h 07m
Waxing Gibbous, 99% of the Moon is Illuminated
Nov 9
Waxing Gibbous
Nov 10
Full
Nov 18
Last Quarter
Nov 25
New
Dec 2
First Quarter

Hourly Weather History & Observations

Time (EST) Temp. Windchill Dew Point Humidity Pressure Visibility Wind Dir Wind Speed Gust Speed Precip Events Conditions
12:53 AM 55.0 °F - 48.0 °F 77% 29.97 in 10.0 mi SSE 10.4 mph - N/A   Clear
1:53 AM 54.0 °F - 46.9 °F 77% 29.96 in 10.0 mi SSE 11.5 mph - N/A   Clear
2:53 AM 54.0 °F - 46.9 °F 77% 29.96 in 10.0 mi SSE 8.1 mph - N/A   Clear
3:53 AM 55.0 °F - 46.9 °F 74% 29.93 in 10.0 mi SE 8.1 mph - N/A   Clear
4:53 AM 55.0 °F - 46.9 °F 74% 29.90 in 10.0 mi SE 10.4 mph - N/A   Clear
5:53 AM 55.9 °F - 46.9 °F 72% 29.90 in 10.0 mi SSE 9.2 mph - N/A   Mostly Cloudy
6:53 AM 55.9 °F - 46.9 °F 72% 29.88 in 10.0 mi SSE 10.4 mph - N/A   Mostly Cloudy
7:53 AM 55.9 °F - 48.0 °F 75% 29.85 in 10.0 mi SSE 12.7 mph - 0.00 in   Overcast
9:53 AM 54.0 °F - 51.1 °F 90% 29.80 in 5.0 mi SSE 17.3 mph - 0.01 in Rain Rain
10:53 AM 54.0 °F - 52.0 °F 93% 29.79 in 4.0 mi South 21.9 mph 27.6 mph 0.02 in Rain Heavy Rain
11:53 AM 57.9 °F - 54.0 °F 87% 29.76 in 10.0 mi South 23.0 mph 29.9 mph 0.01 in   Overcast
12:49 PM 60.8 °F - 55.4 °F 82% 29.73 in 10.0 mi South 21.9 mph 29.9 mph N/A   Overcast
12:53 PM 60.1 °F - 55.0 °F 83% 29.72 in 10.0 mi South 20.7 mph 29.9 mph N/A   Mostly Cloudy
1:07 PM 60.8 °F - 55.4 °F 82% 29.72 in 10.0 mi South 20.7 mph 29.9 mph N/A   Mostly Cloudy
1:16 PM 60.8 °F - 53.6 °F 77% 29.72 in 10.0 mi South 20.7 mph 33.4 mph N/A   Mostly Cloudy
1:45 PM 62.6 °F - 53.6 °F 72% 29.71 in 10.0 mi South 23.0 mph 36.8 mph N/A   Mostly Cloudy
1:53 PM 62.1 °F - 54.0 °F 75% 29.69 in 10.0 mi South 20.7 mph 29.9 mph N/A   Mostly Cloudy
2:53 PM 64.0 °F - 53.1 °F 67% 29.67 in 10.0 mi South 24.2 mph 34.5 mph N/A   Clear
3:53 PM 61.0 °F - 51.1 °F 70% 29.66 in 10.0 mi SSW 20.7 mph 29.9 mph N/A   Mostly Cloudy
4:53 PM 54.0 °F - 46.0 °F 75% 29.72 in 10.0 mi West 27.6 mph 39.1 mph N/A   Mostly Cloudy
5:53 PM 51.1 °F - 42.1 °F 71% 29.77 in 10.0 mi WSW 29.9 mph 36.8 mph N/A   Overcast
6:53 PM 46.0 °F 37.6 °F 35.1 °F 66% 29.82 in 10.0 mi WSW 24.2 mph 35.7 mph N/A   Overcast
7:22 PM 44.6 °F 36.1 °F 33.8 °F 66% 29.85 in 10.0 mi SW 21.9 mph 38.0 mph N/A   Overcast
7:44 PM 42.8 °F 32.3 °F 33.8 °F 70% 29.86 in 10.0 mi WSW 29.9 mph 41.4 mph 0.00 in Rain Light Rain
7:53 PM 43.0 °F 34.0 °F 34.0 °F 71% 29.86 in 10.0 mi WSW 21.9 mph 35.7 mph 0.00 in Rain Light Rain
8:14 PM 42.8 °F 32.5 °F 33.8 °F 70% 29.88 in 10.0 mi West 28.8 mph 41.4 mph N/A   Overcast
8:53 PM 41.0 °F 31.9 °F 33.1 °F 73% 29.89 in 10.0 mi WSW 19.6 mph 29.9 mph 0.00 in   Overcast
9:53 PM 41.0 °F 32.5 °F 33.1 °F 73% 29.92 in 10.0 mi WSW 17.3 mph 32.2 mph N/A   Overcast
10:10 PM 41.0 °F 31.9 °F 32.0 °F 70% 29.93 in 10.0 mi WSW 19.6 mph 29.9 mph N/A   Overcast
10:23 PM 41.0 °F 31.6 °F 32.0 °F 70% 29.93 in 10.0 mi WSW 20.7 mph 29.9 mph N/A   Overcast
10:53 PM 39.9 °F 31.4 °F 32.0 °F 73% 29.94 in 10.0 mi WSW 16.1 mph 26.5 mph N/A   Overcast
11:31 PM 41.0 °F 32.2 °F 33.8 °F 76% 29.96 in 10.0 mi WSW 18.4 mph 25.3 mph N/A   Overcast
11:53 PM 41.0 °F 32.5 °F 33.1 °F 73% 29.96 in 10.0 mi West 17.3 mph 23.0 mph N/A   Overcast